Year,Month,Day,Hour,Minute,Value (Times are PST for insolation in W/m^2)
2009,04,01,00,00,0.00
2009,04,01,00,01,0.00
2009,04,01,00,02,0.00
2009,04,01,00,03,0.00
2009,04,01,00,04,0.00
2009,04,01,00,05,0.00
2009,04,01,00,06,0.00
2009,04,01,00,07,0.00
2009,04,01,00,08,0.00
2009,04,01,00,09,0.00
2009,04,01,00,10,0.00
2009,04,01,00,11,0.00
2009,04,01,00,12,0.00
2009,04,01,00,13,0.00
2009,04,01,00,14,0.00
2009,04,01,00,15,0.00
2009,04,01,00,16,0.00
2009,04,01,00,17,0.00
2009,04,01,00,18,0.00
2009,04,01,00,19,0.00
2009,04,01,00,20,0.00
2009,04,01,00,21,0.00
2009,04,01,00,22,0.00
2009,04,01,00,23,0.00
2009,04,01,00,24,0.00
2009,04,01,00,25,0.00
2009,04,01,00,26,0.00
2009,04,01,00,27,0.00
2009,04,01,00,28,0.00
2009,04,01,00,29,0.00
2009,04,01,00,30,0.00
2009,04,01,00,31,0.00
2009,04,01,00,32,0.00
2009,04,01,00,33,0.00
2009,04,01,00,34,0.00
2009,04,01,00,35,0.00
2009,04,01,00,36,0.00
2009,04,01,00,37,0.00
2009,04,01,00,38,0.00
2009,04,01,00,39,0.00
2009,04,01,00,40,0.00
2009,04,01,00,41,0.00
2009,04,01,00,42,0.00
2009,04,01,00,43,0.00
2009,04,01,00,44,0.00
2009,04,01,00,45,0.00
2009,04,01,00,46,0.00
2009,04,01,00,47,0.00
2009,04,01,00,48,0.00
2009,04,01,00,49,0.00
2009,04,01,00,50,0.00
2009,04,01,00,51,0.00
2009,04,01,00,52,0.00
2009,04,01,00,53,0.00
2009,04,01,00,54,0.00
2009,04,01,00,55,0.00
2009,04,01,00,56,0.00
2009,04,01,00,57,0.00
2009,04,01,00,58,0.00
2009,04,01,00,59,0.00
2009,04,01,01,00,0.00
2009,04,01,01,01,0.00
2009,04,01,01,02,0.00
2009,04,01,01,03,0.00
2009,04,01,01,04,0.00
2009,04,01,01,05,0.00
2009,04,01,01,06,0.00
2009,04,01,01,07,0.00
2009,04,01,01,08,0.00
2009,04,01,01,09,0.00
2009,04,01,01,10,0.00
2009,04,01,01,11,0.00
2009,04,01,01,12,0.00
2009,04,01,01,13,0.00
2009,04,01,01,14,0.00
2009,04,01,01,15,0.00
2009,04,01,01,16,0.00
2009,04,01,01,17,0.00
2009,04,01,01,18,0.00
2009,04,01,01,19,0.00
2009,04,01,01,20,0.00
2009,04,01,01,21,0.00
2009,04,01,01,22,0.00
2009,04,01,01,23,0.00
2009,04,01,01,24,0.00
2009,04,01,01,25,0.00
2009,04,01,01,26,0.00
2009,04,01,01,27,0.00
2009,04,01,01,28,0.00
2009,04,01,01,29,0.00
2009,04,01,01,30,0.00
2009,04,01,01,31,0.00
2009,04,01,01,32,0.00
2009,04,01,01,33,0.00
2009,04,01,01,34,0.00
2009,04,01,01,35,0.00
2009,04,01,01,36,0.00
2009,04,01,01,37,0.00
2009,04,01,01,38,0.00
2009,04,01,01,39,0.00
2009,04,01,01,40,0.00
2009,04,01,01,41,0.00
2009,04,01,01,42,0.00
2009,04,01,01,43,0.00
2009,04,01,01,44,0.00
2009,04,01,01,45,0.00
2009,04,01,01,46,0.00
2009,04,01,01,47,0.00
2009,04,01,01,48,0.00
2009,04,01,01,49,0.00
2009,04,01,01,50,0.00
2009,04,01,01,51,0.00
2009,04,01,01,52,0.00
2009,04,01,01,53,0.00
2009,04,01,01,54,0.00
2009,04,01,01,55,0.00
2009,04,01,01,56,0.00
2009,04,01,01,57,0.00
2009,04,01,01,58,0.00
2009,04,01,01,59,0.00
2009,04,01,02,00,0.00
2009,04,01,02,01,0.00
2009,04,01,02,02,0.00
2009,04,01,02,03,0.00
2009,04,01,02,04,0.00
2009,04,01,02,05,0.00
2009,04,01,02,06,0.00
2009,04,01,02,07,0.00
2009,04,01,02,08,0.00
2009,04,01,02,09,0.00
2009,04,01,02,10,0.00
2009,04,01,02,11,0.00
2009,04,01,02,12,0.00
2009,04,01,02,13,0.00
2009,04,01,02,14,0.00
2009,04,01,02,15,0.00
2009,04,01,02,16,0.00
2009,04,01,02,17,0.00
2009,04,01,02,18,0.00
2009,04,01,02,19,0.00
2009,04,01,02,20,0.00
2009,04,01,02,21,0.00
2009,04,01,02,22,0.00
2009,04,01,02,23,0.00
2009,04,01,02,24,0.00
2009,04,01,02,25,0.00
2009,04,01,02,26,0.00
2009,04,01,02,27,0.00
2009,04,01,02,28,0.00
2009,04,01,02,29,0.00
2009,04,01,02,30,0.00
2009,04,01,02,31,0.00
2009,04,01,02,32,0.00
2009,04,01,02,33,0.00
2009,04,01,02,34,0.00
2009,04,01,02,35,0.00
2009,04,01,02,36,0.00
2009,04,01,02,37,0.00
2009,04,01,02,38,0.00
2009,04,01,02,39,0.00
2009,04,01,02,40,0.00
2009,04,01,02,41,0.00
2009,04,01,02,42,0.00
2009,04,01,02,43,0.00
2009,04,01,02,44,0.00
2009,04,01,02,45,0.00
2009,04,01,02,46,0.00
2009,04,01,02,47,0.00
2009,04,01,02,48,0.00
2009,04,01,02,49,0.00
2009,04,01,02,50,0.00
2009,04,01,02,51,0.00
2009,04,01,02,52,0.00
2009,04,01,02,53,0.00
2009,04,01,02,54,0.00
2009,04,01,02,55,0.00
2009,04,01,02,56,0.00
2009,04,01,02,57,0.00
2009,04,01,02,58,0.00
2009,04,01,02,59,0.00
2009,04,01,03,00,0.00
2009,04,01,03,01,0.00
2009,04,01,03,02,0.00
2009,04,01,03,03,0.00
2009,04,01,03,04,0.00
2009,04,01,03,05,0.00
2009,04,01,03,06,0.00
2009,04,01,03,07,0.00
2009,04,01,03,08,0.00
2009,04,01,03,09,0.00
2009,04,01,03,10,0.00
2009,04,01,03,11,0.00
2009,04,01,03,12,0.00
2009,04,01,03,13,0.00
2009,04,01,03,14,0.00
2009,04,01,03,15,0.00
2009,04,01,03,16,0.00
2009,04,01,03,17,0.00
2009,04,01,03,18,0.00
2009,04,01,03,19,0.00
2009,04,01,03,20,0.00
2009,04,01,03,21,0.00
2009,04,01,03,22,0.00
2009,04,01,03,23,0.00
2009,04,01,03,24,0.00
2009,04,01,03,25,0.00
2009,04,01,03,26,0.00
2009,04,01,03,27,0.00
2009,04,01,03,28,0.00
2009,04,01,03,29,0.00
2009,04,01,03,30,0.00
2009,04,01,03,31,0.00
2009,04,01,03,32,0.00
2009,04,01,03,33,0.00
2009,04,01,03,34,0.00
2009,04,01,03,35,0.00
2009,04,01,03,36,0.00
2009,04,01,03,37,0.00
2009,04,01,03,38,0.00
2009,04,01,03,39,0.00
2009,04,01,03,40,0.00
2009,04,01,03,41,0.00
2009,04,01,03,42,0.00
2009,04,01,03,43,0.00
2009,04,01,03,44,0.00
2009,04,01,03,45,0.00
2009,04,01,03,46,0.00
2009,04,01,03,47,0.00
2009,04,01,03,48,0.00
2009,04,01,03,49,0.00
2009,04,01,03,50,0.00
2009,04,01,03,51,0.00
2009,04,01,03,52,0.00
2009,04,01,03,53,0.00
2009,04,01,03,54,0.00
2009,04,01,03,55,0.00
2009,04,01,03,56,0.00
2009,04,01,03,57,0.00
2009,04,01,03,58,0.00
2009,04,01,03,59,0.00
2009,04,01,04,00,0.00
2009,04,01,04,01,0.00
2009,04,01,04,02,0.00
2009,04,01,04,03,0.00
2009,04,01,04,04,0.00
2009,04,01,04,05,0.00
2009,04,01,04,06,0.00
2009,04,01,04,07,0.00
2009,04,01,04,08,0.00
2009,04,01,04,09,0.00
2009,04,01,04,10,0.00
2009,04,01,04,11,0.00
2009,04,01,04,12,0.00
2009,04,01,04,13,0.00
2009,04,01,04,14,0.00
2009,04,01,04,15,0.00
2009,04,01,04,16,0.00
2009,04,01,04,17,0.00
2009,04,01,04,18,0.00
2009,04,01,04,19,0.00
2009,04,01,04,20,0.00
2009,04,01,04,21,0.00
2009,04,01,04,22,0.00
2009,04,01,04,23,0.00
2009,04,01,04,24,0.00
2009,04,01,04,25,0.00
2009,04,01,04,26,0.00
2009,04,01,04,27,0.00
2009,04,01,04,28,0.00
2009,04,01,04,29,0.00
2009,04,01,04,30,0.00
2009,04,01,04,31,0.00
2009,04,01,04,32,0.00
2009,04,01,04,33,0.00
2009,04,01,04,34,0.00
2009,04,01,04,35,0.00
2009,04,01,04,36,0.00
2009,04,01,04,37,0.00
2009,04,01,04,38,0.00
2009,04,01,04,39,0.00
2009,04,01,04,40,0.00
2009,04,01,04,41,0.00
2009,04,01,04,42,0.00
2009,04,01,04,43,0.00
2009,04,01,04,44,0.00
2009,04,01,04,45,0.00
2009,04,01,04,46,0.00
2009,04,01,04,47,0.00
2009,04,01,04,48,0.00
2009,04,01,04,49,0.00
2009,04,01,04,50,0.00
2009,04,01,04,51,0.00
2009,04,01,04,52,0.00
2009,04,01,04,53,0.00
2009,04,01,04,54,0.00
2009,04,01,04,55,0.00
2009,04,01,04,56,0.00
2009,04,01,04,57,0.00
2009,04,01,04,58,0.00
2009,04,01,04,59,0.00
2009,04,01,05,00,0.00
2009,04,01,05,01,0.00
2009,04,01,05,02,0.00
2009,04,01,05,03,0.00
2009,04,01,05,04,0.00
2009,04,01,05,05,0.00
2009,04,01,05,06,0.00
2009,04,01,05,07,0.00
2009,04,01,05,08,0.00
2009,04,01,05,09,0.00
2009,04,01,05,10,0.00
2009,04,01,05,11,0.00
2009,04,01,05,12,0.00
2009,04,01,05,13,0.00
2009,04,01,05,14,0.00
2009,04,01,05,15,0.00
2009,04,01,05,16,0.00
2009,04,01,05,17,0.00
2009,04,01,05,18,0.00
2009,04,01,05,19,0.00
2009,04,01,05,20,0.00
2009,04,01,05,21,0.00
2009,04,01,05,22,0.00
2009,04,01,05,23,0.00
2009,04,01,05,24,0.00
2009,04,01,05,25,0.00
2009,04,01,05,26,0.00
2009,04,01,05,27,0.00
2009,04,01,05,28,0.00
2009,04,01,05,29,0.00
2009,04,01,05,30,0.00
2009,04,01,05,31,0.00
2009,04,01,05,32,0.00
2009,04,01,05,33,0.00
2009,04,01,05,34,0.00
2009,04,01,05,35,0.00
2009,04,01,05,36,0.00
2009,04,01,05,37,0.00
2009,04,01,05,38,0.00
2009,04,01,05,39,0.00
2009,04,01,05,40,0.00
2009,04,01,05,41,0.00
2009,04,01,05,42,0.00
2009,04,01,05,43,0.00
2009,04,01,05,44,0.00
2009,04,01,05,45,0.00
2009,04,01,05,46,0.00
2009,04,01,05,47,0.00
2009,04,01,05,48,0.00
2009,04,01,05,49,0.00
2009,04,01,05,50,0.00
2009,04,01,05,51,0.00
2009,04,01,05,52,0.00
2009,04,01,05,53,0.00
2009,04,01,05,54,0.00
2009,04,01,05,55,0.00
2009,04,01,05,56,0.00
2009,04,01,05,57,0.00
2009,04,01,05,58,0.00
2009,04,01,05,59,0.00
2009,04,01,06,00,0.00
2009,04,01,06,01,0.00
2009,04,01,06,02,0.00
2009,04,01,06,03,0.00
2009,04,01,06,04,0.00
2009,04,01,06,05,0.00
2009,04,01,06,06,0.00
2009,04,01,06,07,0.00
2009,04,01,06,08,0.00
2009,04,01,06,09,0.00
2009,04,01,06,10,0.00
2009,04,01,06,11,0.00
2009,04,01,06,12,0.00
2009,04,01,06,13,0.00
2009,04,01,06,14,0.00
2009,04,01,06,15,0.00
2009,04,01,06,16,0.00
2009,04,01,06,17,0.00
2009,04,01,06,18,0.00
2009,04,01,06,19,0.00
2009,04,01,06,20,0.00
2009,04,01,06,21,0.00
2009,04,01,06,22,0.00
2009,04,01,06,23,0.00
2009,04,01,06,24,0.00
2009,04,01,06,25,0.00
2009,04,01,06,26,0.00
2009,04,01,06,27,0.00
2009,04,01,06,28,0.00
2009,04,01,06,29,0.00
2009,04,01,06,30,0.00
2009,04,01,06,31,0.00
2009,04,01,06,32,0.00
2009,04,01,06,33,0.00
2009,04,01,06,34,0.00
2009,04,01,06,35,0.00
2009,04,01,06,36,0.00
2009,04,01,06,37,0.00
2009,04,01,06,38,0.00
2009,04,01,06,39,0.00
2009,04,01,06,40,0.00
2009,04,01,06,41,0.00
2009,04,01,06,42,0.00
2009,04,01,06,43,0.00
2009,04,01,06,44,0.00
2009,04,01,06,45,0.00
2009,04,01,06,46,0.00
2009,04,01,06,47,0.00
2009,04,01,06,48,0.00
2009,04,01,06,49,0.00
2009,04,01,06,50,0.00
2009,04,01,06,51,0.00
2009,04,01,06,52,0.00
2009,04,01,06,53,0.00
2009,04,01,06,54,0.00
2009,04,01,06,55,0.00
2009,04,01,06,56,0.00
2009,04,01,06,57,0.00
2009,04,01,06,58,0.00
2009,04,01,06,59,0.00
2009,04,01,07,00,0.00
2009,04,01,07,01,0.00
2009,04,01,07,02,0.00
2009,04,01,07,03,0.00
2009,04,01,07,04,0.00
2009,04,01,07,05,0.00
2009,04,01,07,06,0.00
2009,04,01,07,07,0.00
2009,04,01,07,08,0.00
2009,04,01,07,09,0.00
2009,04,01,07,10,0.00
2009,04,01,07,11,0.00
2009,04,01,07,12,0.00
2009,04,01,07,13,0.00
2009,04,01,07,14,0.00
2009,04,01,07,15,0.00
2009,04,01,07,16,0.00
2009,04,01,07,17,0.00
2009,04,01,07,18,0.00
2009,04,01,07,19,0.00
2009,04,01,07,20,0.00
2009,04,01,07,21,0.00
2009,04,01,07,22,0.00
2009,04,01,07,23,0.00
2009,04,01,07,24,3.20
2009,04,01,07,25,5.00
2009,04,01,07,26,5.00
2009,04,01,07,27,5.00
2009,04,01,07,28,5.00
2009,04,01,07,29,5.00
2009,04,01,07,30,5.00
2009,04,01,07,31,5.00
2009,04,01,07,32,7.00
2009,04,01,07,33,7.00
2009,04,01,07,34,7.00
2009,04,01,07,35,7.00
2009,04,01,07,36,7.00
2009,04,01,07,37,8.70
2009,04,01,07,38,9.10
2009,04,01,07,39,11.00
2009,04,01,07,40,11.40
2009,04,01,07,41,12.00
2009,04,01,07,42,12.00
2009,04,01,07,43,13.50
2009,04,01,07,44,14.00
2009,04,01,07,45,14.00
2009,04,01,07,46,14.90
2009,04,01,07,47,16.00
2009,04,01,07,48,16.00
2009,04,01,07,49,16.00
2009,04,01,07,50,16.00
2009,04,01,07,51,15.50
2009,04,01,07,52,14.00
2009,04,01,07,53,14.00
2009,04,01,07,54,14.00
2009,04,01,07,55,14.00
2009,04,01,07,56,14.00
2009,04,01,07,57,14.60
2009,04,01,07,58,16.00
2009,04,01,07,59,16.00
2009,04,01,08,00,16.00
2009,04,01,08,01,16.00
2009,04,01,08,02,16.00
2009,04,01,08,03,16.00
2009,04,01,08,04,16.80
2009,04,01,08,05,18.00
2009,04,01,08,06,18.00
2009,04,01,08,07,18.00
2009,04,01,08,08,18.00
2009,04,01,08,09,18.00
2009,04,01,08,10,18.00
2009,04,01,08,11,18.00
2009,04,01,08,12,18.90
2009,04,01,08,13,19.00
2009,04,01,08,14,19.40
2009,04,01,08,15,21.00
2009,04,01,08,16,21.00
2009,04,01,08,17,21.00
2009,04,01,08,18,21.00
2009,04,01,08,19,23.00
2009,04,01,08,20,23.00
2009,04,01,08,21,23.00
2009,04,01,08,22,24.10
2009,04,01,08,23,25.70
2009,04,01,08,24,26.00
2009,04,01,08,25,30.20
2009,04,01,08,26,32.30
2009,04,01,08,27,33.80
2009,04,01,08,28,36.30
2009,04,01,08,29,38.50
2009,04,01,08,30,39.90
2009,04,01,08,31,42.00
2009,04,01,08,32,42.00
2009,04,01,08,33,42.00
2009,04,01,08,34,42.00
2009,04,01,08,35,42.00
2009,04,01,08,36,43.90
2009,04,01,08,37,44.30
2009,04,01,08,38,46.00
2009,04,01,08,39,46.00
2009,04,01,08,40,46.00
2009,04,01,08,41,44.40
2009,04,01,08,42,44.00
2009,04,01,08,43,46.20
2009,04,01,08,44,47.60
2009,04,01,08,45,49.90
2009,04,01,08,46,52.30
2009,04,01,08,47,51.40
2009,04,01,08,48,51.00
2009,04,01,08,49,49.30
2009,04,01,08,50,51.00
2009,04,01,08,51,51.90
2009,04,01,08,52,53.60
2009,04,01,08,53,54.00
2009,04,01,08,54,56.00
2009,04,01,08,55,56.00
2009,04,01,08,56,56.70
2009,04,01,08,57,58.80
2009,04,01,08,58,61.40
2009,04,01,08,59,62.80
2009,04,01,09,00,64.80
2009,04,01,09,01,67.40
2009,04,01,09,02,69.00
2009,04,01,09,03,69.00
2009,04,01,09,04,69.00
2009,04,01,09,05,69.90
2009,04,01,09,06,72.00
2009,04,01,09,07,72.40
2009,04,01,09,08,73.10
2009,04,01,09,09,71.00
2009,04,01,09,10,69.30
2009,04,01,09,11,67.40
2009,04,01,09,12,66.80
2009,04,01,09,13,65.00
2009,04,01,09,14,64.20
2009,04,01,09,15,62.40
2009,04,01,09,16,59.00
2009,04,01,09,17,54.20
2009,04,01,09,18,54.30
2009,04,01,09,19,56.60
2009,04,01,09,20,59.80
2009,04,01,09,21,64.00
2009,04,01,09,22,65.00
2009,04,01,09,23,66.90
2009,04,01,09,24,70.00
2009,04,01,09,25,69.60
2009,04,01,09,26,69.00
2009,04,01,09,27,67.70
2009,04,01,09,28,68.60
2009,04,01,09,29,70.00
2009,04,01,09,30,70.00
2009,04,01,09,31,69.70
2009,04,01,09,32,68.00
2009,04,01,09,33,64.30
2009,04,01,09,34,58.70
2009,04,01,09,35,59.70
2009,04,01,09,36,60.00
2009,04,01,09,37,60.60
2009,04,01,09,38,64.80
2009,04,01,09,39,67.00
2009,04,01,09,40,65.30
2009,04,01,09,41,69.10
2009,04,01,09,42,70.00
2009,04,01,09,43,70.00
2009,04,01,09,44,71.10
2009,04,01,09,45,73.40
2009,04,01,09,46,78.40
2009,04,01,09,47,84.30
2009,04,01,09,48,89.20
2009,04,01,09,49,84.80
2009,04,01,09,50,81.00
2009,04,01,09,51,80.50
2009,04,01,09,52,82.90
2009,04,01,09,53,83.90
2009,04,01,09,54,81.50
2009,04,01,09,55,76.60
2009,04,01,09,56,80.30
2009,04,01,09,57,86.80
2009,04,01,09,58,91.80
2009,04,01,09,59,98.10
2009,04,01,10,00,102.70
2009,04,01,10,01,104.60
2009,04,01,10,02,102.90
2009,04,01,10,03,104.40
2009,04,01,10,04,108.80
2009,04,01,10,05,111.00
2009,04,01,10,06,114.30
2009,04,01,10,07,120.50
2009,04,01,10,08,114.30
2009,04,01,10,09,102.20
2009,04,01,10,10,91.90
2009,04,01,10,11,84.00
2009,04,01,10,12,86.10
2009,04,01,10,13,90.00
2009,04,01,10,14,88.70
2009,04,01,10,15,90.50
2009,04,01,10,16,93.00
2009,04,01,10,17,90.00
2009,04,01,10,18,86.00
2009,04,01,10,19,89.80
2009,04,01,10,20,94.40
2009,04,01,10,21,93.30
2009,04,01,10,22,96.90
2009,04,01,10,23,95.00
2009,04,01,10,24,95.00
2009,04,01,10,25,98.80
2009,04,01,10,26,106.40
2009,04,01,10,27,113.40
2009,04,01,10,28,118.30
2009,04,01,10,29,122.50
2009,04,01,10,30,127.00
2009,04,01,10,31,127.50
2009,04,01,10,32,120.80
2009,04,01,10,33,108.10
2009,04,01,10,34,104.20
2009,04,01,10,35,100.00
2009,04,01,10,36,93.90
2009,04,01,10,37,93.80
2009,04,01,10,38,87.40
2009,04,01,10,39,77.50
2009,04,01,10,40,77.00
2009,04,01,10,41,76.70
2009,04,01,10,42,79.60
2009,04,01,10,43,87.70
2009,04,01,10,44,95.40
2009,04,01,10,45,95.30
2009,04,01,10,46,95.30
2009,04,01,10,47,96.40
2009,04,01,10,48,91.50
2009,04,01,10,49,91.20
2009,04,01,10,50,100.20
2009,04,01,10,51,102.00
2009,04,01,10,52,109.00
2009,04,01,10,53,113.40
2009,04,01,10,54,123.90
2009,04,01,10,55,118.50
2009,04,01,10,56,108.40
2009,04,01,10,57,98.00
2009,04,01,10,58,97.80
2009,04,01,10,59,94.90
2009,04,01,11,00,89.60
2009,04,01,11,01,85.10
2009,04,01,11,02,79.60
2009,04,01,11,03,75.90
2009,04,01,11,04,73.40
2009,04,01,11,05,72.00
2009,04,01,11,06,74.20
2009,04,01,11,07,76.70
2009,04,01,11,08,82.40
2009,04,01,11,09,86.10
2009,04,01,11,10,88.00
2009,04,01,11,11,86.20
2009,04,01,11,12,82.20
2009,04,01,11,13,75.80
2009,04,01,11,14,72.20
2009,04,01,11,15,72.90
2009,04,01,11,16,83.00
2009,04,01,11,17,80.70
2009,04,01,11,18,76.40
2009,04,01,11,19,74.50
2009,04,01,11,20,69.30
2009,04,01,11,21,72.60
2009,04,01,11,22,76.00
2009,04,01,11,23,74.40
2009,04,01,11,24,74.40
2009,04,01,11,25,71.10
2009,04,01,11,26,63.30
2009,04,01,11,27,64.60
2009,04,01,11,28,61.40
2009,04,01,11,29,62.90
2009,04,01,11,30,74.60
2009,04,01,11,31,84.60
2009,04,01,11,32,94.60
2009,04,01,11,33,99.60
2009,04,01,11,34,95.70
2009,04,01,11,35,94.00
2009,04,01,11,36,97.00
2009,04,01,11,37,107.30
2009,04,01,11,38,114.00
2009,04,01,11,39,115.50
2009,04,01,11,40,110.20
2009,04,01,11,41,101.80
2009,04,01,11,42,93.30
2009,04,01,11,43,96.00
2009,04,01,11,44,98.10
2009,04,01,11,45,99.60
2009,04,01,11,46,98.00
2009,04,01,11,47,101.30
2009,04,01,11,48,104.00
2009,04,01,11,49,102.20
2009,04,01,11,50,93.00
2009,04,01,11,51,93.50
2009,04,01,11,52,93.50
2009,04,01,11,53,90.40
2009,04,01,11,54,88.50
2009,04,01,11,55,84.40
2009,04,01,11,56,84.20
2009,04,01,11,57,87.80
2009,04,01,11,58,93.90
2009,04,01,11,59,99.20
2009,04,01,12,00,104.20
2009,04,01,12,01,99.50
2009,04,01,12,02,107.60
2009,04,01,12,03,114.80
2009,04,01,12,04,121.30
2009,04,01,12,05,125.20
2009,04,01,12,06,111.00
2009,04,01,12,07,98.50
2009,04,01,12,08,98.70
2009,04,01,12,09,101.30
2009,04,01,12,10,82.90
2009,04,01,12,11,72.00
2009,04,01,12,12,75.00
2009,04,01,12,13,77.00
2009,04,01,12,14,96.40
2009,04,01,12,15,128.40
2009,04,01,12,16,131.00
2009,04,01,12,17,134.60
2009,04,01,12,18,123.50
2009,04,01,12,19,107.10
2009,04,01,12,20,107.30
2009,04,01,12,21,93.20
2009,04,01,12,22,78.30
2009,04,01,12,23,75.30
2009,04,01,12,24,92.00
2009,04,01,12,25,121.70
2009,04,01,12,26,136.40
2009,04,01,12,27,139.00
2009,04,01,12,28,139.50
2009,04,01,12,29,150.40
2009,04,01,12,30,157.50
2009,04,01,12,31,167.00
2009,04,01,12,32,167.00
2009,04,01,12,33,164.20
2009,04,01,12,34,150.10
2009,04,01,12,35,144.80
2009,04,01,12,36,137.40
2009,04,01,12,37,138.10
2009,04,01,12,38,130.20
2009,04,01,12,39,123.10
2009,04,01,12,40,112.60
2009,04,01,12,41,118.10
2009,04,01,12,42,124.20
2009,04,01,12,43,132.50
2009,04,01,12,44,134.80
2009,04,01,12,45,121.70
2009,04,01,12,46,106.60
2009,04,01,12,47,102.00
2009,04,01,12,48,112.40
2009,04,01,12,49,114.00
2009,04,01,12,50,109.80
2009,04,01,12,51,103.30
2009,04,01,12,52,103.80
2009,04,01,12,53,93.10
2009,04,01,12,54,92.90
2009,04,01,12,55,115.10
2009,04,01,12,56,119.50
2009,04,01,12,57,120.50
2009,04,01,12,58,117.70
2009,04,01,12,59,104.00
2009,04,01,13,00,98.00
2009,04,01,13,01,99.40
2009,04,01,13,02,107.10
2009,04,01,13,03,122.00
2009,04,01,13,04,127.10
2009,04,01,13,05,126.70
2009,04,01,13,06,136.70
2009,04,01,13,07,124.20
2009,04,01,13,08,92.30
2009,04,01,13,09,98.80
2009,04,01,13,10,106.50
2009,04,01,13,11,105.20
2009,04,01,13,12,108.20
2009,04,01,13,13,93.00
2009,04,01,13,14,96.50
2009,04,01,13,15,107.10
2009,04,01,13,16,126.80
2009,04,01,13,17,128.40
2009,04,01,13,18,135.30
2009,04,01,13,19,114.50
2009,04,01,13,20,95.80
2009,04,01,13,21,95.40
2009,04,01,13,22,95.50
2009,04,01,13,23,95.00
2009,04,01,13,24,92.50
2009,04,01,13,25,85.80
2009,04,01,13,26,77.70
2009,04,01,13,27,74.70
2009,04,01,13,28,76.00
2009,04,01,13,29,82.70
2009,04,01,13,30,92.40
2009,04,01,13,31,109.40
2009,04,01,13,32,132.60
2009,04,01,13,33,124.60
2009,04,01,13,34,97.30
2009,04,01,13,35,102.00
2009,04,01,13,36,103.50
2009,04,01,13,37,100.20
2009,04,01,13,38,110.00
2009,04,01,13,39,111.40
2009,04,01,13,40,102.30
2009,04,01,13,41,107.00
2009,04,01,13,42,92.60
2009,04,01,13,43,94.90
2009,04,01,13,44,100.70
2009,04,01,13,45,102.90
2009,04,01,13,46,99.20
2009,04,01,13,47,102.20
2009,04,01,13,48,109.80
2009,04,01,13,49,120.60
2009,04,01,13,50,122.80
2009,04,01,13,51,128.50
2009,04,01,13,52,104.80
2009,04,01,13,53,98.70
2009,04,01,13,54,105.80
2009,04,01,13,55,118.20
2009,04,01,13,56,125.90
2009,04,01,13,57,108.20
2009,04,01,13,58,104.00
2009,04,01,13,59,93.90
2009,04,01,14,00,81.00
2009,04,01,14,01,70.90
2009,04,01,14,02,69.00
2009,04,01,14,03,69.00
2009,04,01,14,04,67.40
2009,04,01,14,05,68.60
2009,04,01,14,06,63.20
2009,04,01,14,07,56.20
2009,04,01,14,08,58.90
2009,04,01,14,09,68.80
2009,04,01,14,10,63.30
2009,04,01,14,11,56.00
2009,04,01,14,12,55.20
2009,04,01,14,13,59.00
2009,04,01,14,14,63.20
2009,04,01,14,15,68.20
2009,04,01,14,16,72.00
2009,04,01,14,17,75.70
2009,04,01,14,18,77.00
2009,04,01,14,19,90.00
2009,04,01,14,20,103.70
2009,04,01,14,21,108.70
2009,04,01,14,22,104.00
2009,04,01,14,23,102.30
2009,04,01,14,24,91.70
2009,04,01,14,25,87.00
2009,04,01,14,26,86.60
2009,04,01,14,27,89.60
2009,04,01,14,28,83.80
2009,04,01,14,29,78.40
2009,04,01,14,30,74.70
2009,04,01,14,31,70.90
2009,04,01,14,32,66.40
2009,04,01,14,33,65.00
2009,04,01,14,34,66.80
2009,04,01,14,35,63.90
2009,04,01,14,36,67.00
2009,04,01,14,37,71.80
2009,04,01,14,38,73.30
2009,04,01,14,39,63.00
2009,04,01,14,40,62.10
2009,04,01,14,41,63.50
2009,04,01,14,42,65.00
2009,04,01,14,43,63.30
2009,04,01,14,44,59.40
2009,04,01,14,45,56.10
2009,04,01,14,46,54.30
2009,04,01,14,47,58.10
2009,04,01,14,48,63.00
2009,04,01,14,49,66.70
2009,04,01,14,50,69.00
2009,04,01,14,51,71.80
2009,04,01,14,52,69.50
2009,04,01,14,53,65.70
2009,04,01,14,54,68.00
2009,04,01,14,55,76.80
2009,04,01,14,56,85.00
2009,04,01,14,57,79.40
2009,04,01,14,58,77.00
2009,04,01,14,59,76.70
2009,04,01,15,00,76.50
2009,04,01,15,01,78.30
2009,04,01,15,02,94.30
2009,04,01,15,03,107.00
2009,04,01,15,04,113.00
2009,04,01,15,05,113.30
2009,04,01,15,06,117.90
2009,04,01,15,07,116.20
2009,04,01,15,08,96.90
2009,04,01,15,09,91.50
2009,04,01,15,10,90.20
2009,04,01,15,11,91.70
2009,04,01,15,12,84.90
2009,04,01,15,13,79.00
2009,04,01,15,14,76.30
2009,04,01,15,15,81.00
2009,04,01,15,16,80.00
2009,04,01,15,17,77.80
2009,04,01,15,18,69.90
2009,04,01,15,19,55.80
2009,04,01,15,20,53.80
2009,04,01,15,21,62.30
2009,04,01,15,22,56.00
2009,04,01,15,23,59.20
2009,04,01,15,24,62.40
2009,04,01,15,25,56.00
2009,04,01,15,26,49.20
2009,04,01,15,27,54.80
2009,04,01,15,28,62.30
2009,04,01,15,29,63.90
2009,04,01,15,30,69.20
2009,04,01,15,31,70.40
2009,04,01,15,32,62.40
2009,04,01,15,33,56.80
2009,04,01,15,34,67.00
2009,04,01,15,35,82.40
2009,04,01,15,36,77.50
2009,04,01,15,37,78.20
2009,04,01,15,38,79.00
2009,04,01,15,39,69.00
2009,04,01,15,40,70.80
2009,04,01,15,41,77.50
2009,04,01,15,42,81.00
2009,04,01,15,43,79.60
2009,04,01,15,44,84.00
2009,04,01,15,45,86.70
2009,04,01,15,46,87.60
2009,04,01,15,47,83.00
2009,04,01,15,48,76.70
2009,04,01,15,49,72.30
2009,04,01,15,50,65.30
2009,04,01,15,51,69.80
2009,04,01,15,52,73.70
2009,04,01,15,53,78.90
2009,04,01,15,54,72.20
2009,04,01,15,55,66.30
2009,04,01,15,56,72.10
2009,04,01,15,57,74.60
2009,04,01,15,58,73.80
2009,04,01,15,59,61.20
2009,04,01,16,00,50.60
2009,04,01,16,01,47.20
2009,04,01,16,02,58.90
2009,04,01,16,03,65.70
2009,04,01,16,04,64.60
2009,04,01,16,05,67.80
2009,04,01,16,06,61.40
2009,04,01,16,07,53.40
2009,04,01,16,08,58.60
2009,04,01,16,09,67.60
2009,04,01,16,10,63.20
2009,04,01,16,11,53.00
2009,04,01,16,12,49.60
2009,04,01,16,13,52.80
2009,04,01,16,14,62.00
2009,04,01,16,15,61.80
2009,04,01,16,16,51.60
2009,04,01,16,17,45.80
2009,04,01,16,18,40.90
2009,04,01,16,19,40.00
2009,04,01,16,20,38.10
2009,04,01,16,21,32.00
2009,04,01,16,22,30.00
2009,04,01,16,23,33.40
2009,04,01,16,24,38.40
2009,04,01,16,25,37.00
2009,04,01,16,26,37.60
2009,04,01,16,27,40.70
2009,04,01,16,28,40.30
2009,04,01,16,29,37.60
2009,04,01,16,30,39.60
2009,04,01,16,31,40.00
2009,04,01,16,32,39.40
2009,04,01,16,33,37.00
2009,04,01,16,34,38.70
2009,04,01,16,35,40.00
2009,04,01,16,36,40.00
2009,04,01,16,37,46.00
2009,04,01,16,38,46.20
2009,04,01,16,39,47.80
2009,04,01,16,40,51.30
2009,04,01,16,41,56.60
2009,04,01,16,42,62.70
2009,04,01,16,43,63.00
2009,04,01,16,44,61.60
2009,04,01,16,45,54.00
2009,04,01,16,46,44.80
2009,04,01,16,47,45.90
2009,04,01,16,48,53.70
2009,04,01,16,49,58.90
2009,04,01,16,50,51.10
2009,04,01,16,51,46.00
2009,04,01,16,52,43.90
2009,04,01,16,53,42.00
2009,04,01,16,54,40.10
2009,04,01,16,55,34.50
2009,04,01,16,56,31.30
2009,04,01,16,57,31.00
2009,04,01,16,58,30.70
2009,04,01,16,59,30.00
2009,04,01,17,00,28.30
2009,04,01,17,01,28.00
2009,04,01,17,02,27.00
2009,04,01,17,03,25.00
2009,04,01,17,04,25.70
2009,04,01,17,05,26.00
2009,04,01,17,06,25.00
2009,04,01,17,07,24.70
2009,04,01,17,08,23.00
2009,04,01,17,09,23.00
2009,04,01,17,10,25.20
2009,04,01,17,11,26.00
2009,04,01,17,12,28.00
2009,04,01,17,13,28.00
2009,04,01,17,14,28.80
2009,04,01,17,15,31.20
2009,04,01,17,16,32.70
2009,04,01,17,17,33.00
2009,04,01,17,18,27.90
2009,04,01,17,19,26.00
2009,04,01,17,20,26.80
2009,04,01,17,21,29.20
2009,04,01,17,22,31.50
2009,04,01,17,23,32.90
2009,04,01,17,24,32.10
2009,04,01,17,25,33.60
2009,04,01,17,26,35.90
2009,04,01,17,27,38.20
2009,04,01,17,28,39.00
2009,04,01,17,29,33.30
2009,04,01,17,30,35.00
2009,04,01,17,31,34.40
2009,04,01,17,32,32.50
2009,04,01,17,33,32.60